Regional Weather Roundup
Issued by NWS Albany, NY

Home | Current Version | Previous Version | Graphics & Text | Print | Product List | Glossary Off
Versions: 1 2 3 4 5 6 7 8 9 10 11 12 13 14 15 16 17 18 19 20 21 22 23 24 25 26 27

000
ASUS41 KALY 232010
RWRALY

NEW YORK STATE HOURLY WEATHER ROUNDUP
NATIONAL WEATHER SERVICE ALBANY NY
400 PM EDT SAT SEP 23 2017

NOTE: "FAIR" INDICATES FEW OR NO CLOUDS BELOW 12,000 FEET WITH NO
SIGNIFICANT WEATHER AND/OR NO OBSTRUCTIONS TO VISIBILITY.

NYZ032-033-038>043-046>054-057>066-NYZ062>081-082-084-232100-
EAST


CITY           SKY/WX    TMP DP  RH WIND       PRES   REMARKS
ALBANY         MOSUNNY   84  54  35 NE5       30.05F
GLENS FALLS    SUNNY     82  57  42 SE6       30.04F
POUGHKEEPSIE   SUNNY     86  52  30 N6        30.01F
NEWBURGH       SUNNY     84  55  37 N6        30.04F
MONTGOMERY     SUNNY     84  58  40 NE8       30.02F
WHITE PLAINS   SUNNY     85  47  26 N14       30.01F
ISLIP          MOSUNNY   85  63  47 N9        29.98F
NEW YORK CITY  MOSUNNY   85  48  27 N16G23    29.99F
CENTRAL PARK   SUNNY     86  49  27 NE8       30.03F
$$

NYZ005>009-017-018-044>046-055-056-232100-
CENTRAL


CITY           SKY/WX    TMP DP  RH WIND       PRES   REMARKS
FULTON         SUNNY     84  50  30 W10       30.09F
SYRACUSE       MOSUNNY   85  60  42 W7        30.07F
ROME           SUNNY     82  62  50 W10       30.07F
ELMIRA         SUNNY     87  60  40 NE6       30.10F
BINGHAMTON     SUNNY     81  58  45 N12       30.12F
MONTICELLO     SUNNY     84  58  40 N12       30.09F
$$

NYZ026>034-041>043-087-232100-
NORTH


CITY           SKY/WX    TMP DP  RH WIND       PRES   REMARKS
WATERTOWN      SUNNY     80  51  36 W9        30.07F
FORT DRUM      NOT AVBL
OGDENSBURG     FAIR      86  66  50 SW9       30.03F
MASSENA        SUNNY     85  67  54 W7        30.03F
SARANAC LAKE   MOSUNNY   82  63  52 NW6       30.09F
PLATTSBURGH    SUNNY     80  52  37 S6        30.02F
$$

NYZ001>004-010>016-019>021-085-232100-
WEST


CITY           SKY/WX    TMP DP  RH WIND       PRES   REMARKS
NIAGARA FALLS  SUNNY     89  64  43 N9        30.10F HX  90
BUFFALO        MOSUNNY   83  62  49 SW9       30.12F
DUNKIRK        SUNNY     81  59  47 NW6       30.13F
JAMESTOWN      SUNNY     81  62  52 N8        30.18F
WELLSVILLE     SUNNY     83  61  47 NW7       30.20F
ROCHESTER      SUNNY     88  64  44 W9        30.09F
PENN YAN       SUNNY     85  60  42 NW9       30.12F
$$

             KEY
       WCI = WIND CHILL INDEX
       VSB = VISIBILITY
       HX  = HEAT INDEX
$$




USA.gov is the U.S. government's official web portal to all federal, state and local government web resources and services.